Back to catalog

COSMOS 2345

AliveNavigationMEO
NORAD 24894·PAYLOAD·🇷🇺 Russia

Launched Aug 14, 1997 from Baikonur Cosmodrome

Loading…

Next Passes (next 24 hours)

TLE

FreshSource: Space-Track

Epoch: Sep 14, 2026, 10:47 UTC

1 24894U 97041A   26257.44953712 -.00000068  00000-0  00000-0 0  9990
2 24894  14.4101 357.0703 0164853 302.2811  87.7644  1.00385227106550

Track COSMOS 2345 in real time with AllMySat

Download on the App Store